Theta_e
305 306 309 309 309 308 307 306 306 304 303 302 302 302 303 304 304 304 306 307 312 309 313 314 312 310 312 312 313 315 311 313 315 317 317 318 318 319 319 320 321 325 328 329 327
307 307 307 310 310 309 307 306 304 304 303 302 302 302 303 304 305 307 308 308 316 316 314 311 308 309 313 314 314 311 309 312 313 315 314 316 317 317 318 319 320 320 322 327 327
307 308 308 310 310 310 307 305 304 304 303 302 302 302 303 304 308 319 320 312 317 316 309 308 311 315 313 313 313 311 311 311 313 315 316 315 316 317 318 317 320 320 320 322 327
309 309 309 310 311 309 306 305 306 306 304 302 302 302 303 304 318 317 315 312 311 308 308 313 316 315 308 310 312 311 312 312 314 315 314 313 316 316 317 318 318 319 320 324 325
309 310 310 311 311 307 305 307 309 309 307 303 302 302 303 305 307 318 314 311 312 308 313 315 317 317 314 310 311 310 311 313 314 314 314 315 313 314 315 316 318 319 319 325 325
308 310 311 311 310 306 307 309 309 310 308 304 302 302 303 305 310 317 317 313 311 313 315 315 313 312 312 312 311 312 311 311 313 314 313 313 313 314 316 317 318 318 319 319 324
305 310 312 312 306 306 309 310 310 310 306 304 303 303 304 306 318 318 316 314 311 314 315 314 312 312 312 311 312 312 311 309 311 313 313 314 312 313 316 315 316 316 318 319 319
305 307 310 306 306 308 309 309 310 310 310 309 308 308 307 307 315 317 316 315 313 315 314 313 312 313 312 312 310 309 308 309 309 311 312 313 311 313 315 315 315 315 316 317 319
307 304 303 306 308 310 311 310 311 311 310 311 310 315 315 309 314 315 315 315 315 315 315 314 313 312 311 307 306 306 307 309 310 310 312 311 311 312 315 314 315 316 315 315 317
305 307 305 308 310 313 315 315 316 314 316 314 314 313 315 317 316 315 313 314 314 315 314 314 312 308 305 305 308 308 309 310 311 312 312 311 310 310 314 313 314 315 316 314 316
310 306 306 309 310 314 314 315 315 315 315 315 314 315 316 318 317 314 313 312 313 313 311 311 308 308 309 308 310 310 310 310 311 311 312 311 310 310 312 313 312 315 315 315 316
309 310 307 307 311 314 316 316 316 315 315 315 315 314 314 316 318 314 312 312 312 310 310 309 308 309 310 310 310 311 311 311 311 311 311 311 311 310 311 312 314 314 315 316 316
308 309 309 308 313 317 315 316 315 315 314 314 314 314 314 315 317 318 313 313 311 310 309 308 310 311 311 311 312 311 312 312 312 312 311 312 311 311 311 312 313 314 314 314 315
314 308 308 309 309 313 315 316 315 316 312 315 315 317 316 317 315 317 316 315 311 310 309 309 310 311 311 311 312 311 311 312 312 312 311 311 312 310 310 310 311 313 313 314 314
315 312 308 309 307 311 316 316 315 317 317 320 317 317 317 317 315 315 316 315 312 312 310 311 311 311 312 312 311 312 312 311 312 311 310 310 308 309 310 310 311 309 313 314 315
314 314 308 310 311 309 315 316 316 319 320 320 314 314 314 316 314 315 315 315 314 311 310 311 312 311 312 313 312 313 312 311 307 307 310 310 309 311 310 311 310 311 314 315 315
313 314 308 312 309 310 316 316 317 321 318 319 317 315 313 313 314 314 314 313 313 312 311 313 312 312 313 312 312 313 309 310 311 312 315 311 310 311 310 311 311 310 313 315 316
314 310 314 315 309 307 316 316 320 318 318 316 316 316 316 313 313 314 314 312 313 311 311 312 314 313 314 312 312 311 310 312 315 314 315 314 315 313 312 312 314 313 315 315 316
313 310 317 307 308 315 316 318 317 320 315 315 315 315 313 314 313 312 312 312 313 312 313 313 314 314 314 315 314 313 313 311 313 315 315 314 314 314 314 313 313 314 314 312 315
312 314 318 315 314 314 310 311 317 315 315 314 314 313 313 313 314 314 313 314 316 314 312 313 314 313 314 315 315 314 314 314 313 321 320 317 317 316 314 313 313 313 313 315 314
310 314 319 318 317 314 311 313 315 314 315 315 315 314 313 311 312 313 314 314 315 314 313 312 311 313 314 315 315 315 316 317 317 317 322 321 316 310 314 313 313 312 313 315 315
309 309 316 318 315 311 314 312 313 314 313 314 315 316 315 313 312 312 314 314 312 312 314 314 314 315 315 313 314 314 315 316 319 320 319 319 315 312 311 313 313 313 313 313 315
307 311 314 315 312 309 309 311 312 313 313 314 314 312 310 310 311 311 312 310 311 311 314 312 313 315 315 313 314 315 315 314 314 313 312 315 313 312 310 311 312 312 313 313 315
309 308 310 310 308 308 309 311 311 312 313 313 313 312 312 311 310 311 310 311 309 309 311 311 313 317 318 316 314 316 315 314 315 316 314 314 313 310 310 310 310 313 314 315 315
308 304 305 305 307 307 308 310 312 313 311 311 312 312 312 311 310 310 311 310 309 309 310 310 312 311 312 310 312 314 314 312 312 312 312 311 310 309 312 311 313 314 314 314 314
308 306 307 307 307 307 308 309 310 312 310 311 312 311 309 312 311 311 310 309 308 309 308 307 308 311 310 309 309 309 310 310 309 308 307 310 311 312 312 312 312 311 311 312 311
306 306 306 307 307 307 306 309 308 308 309 310 310 309 309 310 309 308 307 307 306 307 307 305 306 308 309 307 308 309 308 310 310 313 314 313 314 313 312 310 310 310 310 310 310
Wind_Speed
10 10 10 9 9 9 8 7 7 7 7 6 6 6 8 10 11 15 17 7 5 9 6 4 5 5 7 7 7 6 3 3 4 6 8 8 6 12 18 20 29 13 15 18 19
11 9 8 9 9 9 8 7 7 7 6 6 5 6 8 10 13 13 6 6 9 7 6 5 5 6 4 5 6 4 4 8 5 4 7 10 8 18 13 22 18 18 12 14 20
12 10 8 6 7 7 7 7 6 6 6 6 5 6 7 8 9 3 1 7 7 6 3 4 6 2 3 3 5 5 5 4 9 17 22 14 11 15 10 11 19 26 20 8 15
14 11 9 6 5 5 5 4 5 6 7 6 6 6 6 5 2 3 5 5 6 5 7 5 2 2 2 5 7 3 10 9 16 25 13 10 18 4 14 23 28 19 18 9 21
16 12 9 7 5 4 3 3 4 6 6 5 5 6 5 5 6 2 3 4 5 7 8 3 2 1 2 3 3 4 4 11 16 19 22 27 18 17 20 27 21 12 14 9 18
19 14 11 7 5 3 3 3 5 6 5 4 4 5 5 4 3 8 5 4 6 7 5 1 2 7 5 2 2 3 7 10 7 13 8 6 13 4 5 9 13 13 14 15 12
20 16 11 8 5 3 3 4 5 5 4 3 4 5 9 13 5 8 4 3 6 6 2 2 5 4 2 5 3 5 5 7 3 4 5 11 10 9 20 9 13 19 20 21 24
23 17 12 9 5 3 4 5 5 4 4 4 4 6 8 2 12 12 8 7 10 7 3 2 6 6 2 5 7 4 3 2 5 2 7 7 8 7 18 19 24 24 22 23 26
25 21 13 8 5 5 5 4 5 6 5 6 6 5 8 9 15 14 12 10 8 5 8 9 11 3 1 4 5 5 3 4 7 6 4 7 6 5 14 15 19 26 26 24 27
25 22 15 8 5 4 6 7 8 9 8 7 8 6 6 4 8 13 16 10 9 9 3 10 4 2 4 4 4 4 3 3 5 5 4 7 9 7 17 14 18 21 26 19 20
27 21 16 10 6 5 7 4 6 2 6 12 11 11 12 6 5 11 16 14 15 6 3 0 2 6 10 8 7 4 4 9 11 15 5 8 8 10 13 14 13 17 20 14 12
27 23 15 12 8 6 6 6 12 10 12 19 23 27 23 16 5 12 16 12 8 6 3 3 6 11 6 6 7 9 11 13 11 12 6 9 9 9 6 5 11 15 16 20 17
28 24 18 11 10 8 7 9 11 8 5 10 11 16 23 16 13 16 17 18 5 6 6 7 10 4 6 7 6 8 6 8 13 6 4 4 6 6 5 8 16 20 20 24 27
30 26 21 14 10 9 3 7 9 7 3 5 4 4 9 9 6 22 24 15 4 11 5 6 14 9 10 6 6 7 7 10 8 3 7 4 16 5 6 9 6 18 26 31 30
29 27 23 16 10 10 5 6 6 1 4 3 3 2 10 10 1 6 24 23 10 8 7 10 6 8 6 11 7 10 8 9 9 6 1 4 5 5 6 7 13 8 24 26 27
28 26 25 17 13 8 6 7 0 4 4 2 5 5 5 9 3 2 10 15 13 4 5 12 6 7 11 13 7 2 5 4 4 1 6 8 9 8 7 8 7 8 25 28 27
27 22 22 12 4 8 4 2 3 3 5 4 4 2 4 3 5 3 4 5 8 3 7 16 12 5 4 6 7 3 5 3 4 3 12 5 7 9 6 9 11 12 26 29 20
26 20 9 4 8 9 5 3 3 2 4 6 4 7 1 3 2 2 2 2 4 4 2 4 9 6 2 7 8 8 8 4 7 5 12 4 6 5 5 14 24 25 24 27 17
25 13 4 4 9 7 5 2 3 3 4 6 6 2 3 5 2 1 4 5 3 5 3 2 5 4 7 1 3 2 4 6 4 2 6 4 6 6 4 8 9 18 30 28 22
23 8 9 7 5 3 3 3 2 6 7 4 4 5 6 7 4 5 3 0 3 4 4 2 5 7 3 6 5 5 1 3 3 4 8 4 4 5 5 7 8 11 17 27 18
12 5 11 6 1 3 2 3 2 14 13 4 3 2 2 3 8 9 4 6 6 2 3 4 5 5 3 5 6 4 2 3 2 3 3 4 5 5 5 5 6 8 18 21 26
9 3 4 5 3 2 1 7 7 12 14 6 2 2 1 5 5 8 8 3 12 10 6 2 5 6 10 8 8 6 2 4 3 3 3 3 6 7 8 6 8 17 24 32 32
11 7 8 2 2 3 6 6 8 11 9 6 3 4 5 2 5 6 4 12 12 7 5 5 3 4 7 2 3 6 2 4 3 1 6 4 5 3 8 11 19 17 19 21 18
7 4 6 9 7 4 5 4 6 13 9 5 5 4 6 4 4 8 8 7 19 10 12 9 4 6 4 6 3 7 10 6 6 3 5 7 17 14 14 14 14 16 18 16 16
9 2 4 4 4 5 4 3 11 7 6 9 3 6 4 4 7 11 9 9 14 17 11 2 4 9 10 12 9 12 12 12 11 11 8 15 13 8 9 10 9 13 19 23 20
5 5 6 7 6 6 2 2 5 4 5 5 4 8 11 8 9 17 16 13 10 5 7 6 5 4 14 13 14 16 16 13 14 14 11 6 6 1 9 15 13 17 19 17 17
5 3 2 4 5 3 3 4 8 14 9 9 9 14 13 14 19 21 27 30 17 10 7 5 2 1 4 3 4 6 5 2 3 3 1 3 2 9 11 12 16 21 25 19 19
Wind_Direction
329 320 315 313 313 314 312 310 307 300 292 278 277 285 284 286 288 286 276 243 204 188 192 211 229 223 221 207 192 155 77 222 225 202 260 308 332 311 315 299 311 284 236 208 172
339 326 312 310 314 315 312 309 305 300 293 281 275 284 294 305 304 287 267 214 181 183 214 231 197 183 183 196 190 140 151 226 202 227 267 292 293 305 311 309 307 330 330 251 189
346 337 318 307 312 315 314 314 309 304 295 281 270 275 292 317 321 1 190 180 204 212 186 151 149 181 180 191 204 176 204 219 251 256 270 279 289 278 284 289 281 305 306 263 215
352 345 336 316 310 306 306 307 311 311 306 298 270 265 283 304 175 92 111 155 186 183 159 153 173 144 173 193 225 192 234 239 270 270 275 275 284 280 264 266 290 283 308 304 213
360 351 340 328 316 303 302 310 320 318 311 303 283 278 297 277 241 123 142 127 124 144 148 153 1 285 225 227 309 201 259 283 287 286 277 279 270 262 259 273 266 276 297 304 217
7 358 347 335 324 317 320 319 320 318 315 305 292 282 269 270 204 184 168 189 176 160 157 102 43 328 277 295 126 289 289 292 306 302 289 280 280 270 322 249 254 280 274 271 238
11 5 358 347 337 336 339 339 335 331 335 312 287 283 265 238 193 178 176 231 210 188 268 321 344 340 347 318 325 290 317 330 255 254 262 283 298 276 292 256 267 285 277 265 266
10 6 358 353 352 349 336 331 338 334 338 325 301 291 259 229 196 192 194 183 180 192 239 256 278 299 227 295 348 7 73 314 268 248 259 198 262 293 304 326 307 317 288 265 255
7 3 2 10 10 353 333 318 303 294 289 295 292 288 268 192 206 196 204 192 188 230 246 266 274 248 344 70 6 358 256 264 307 201 239 196 273 252 311 318 312 320 307 261 247
6 2 358 359 359 3 350 320 298 272 269 277 256 296 247 203 246 217 216 215 239 260 289 241 246 88 42 84 228 235 243 283 258 277 218 269 269 269 295 306 303 312 316 277 262
3 0 352 341 334 342 352 353 357 291 263 248 267 252 267 327 233 211 197 212 233 221 174 290 102 219 227 204 225 244 225 251 268 271 239 244 271 276 288 301 307 318 311 291 272
0 358 349 329 317 323 346 342 7 301 297 278 258 248 254 250 298 229 196 195 198 207 140 20 241 239 222 212 216 228 247 265 276 262 205 269 272 265 251 242 285 299 304 300 289
355 350 344 322 293 295 322 7 355 333 279 293 247 237 233 229 224 231 201 199 168 194 196 190 243 210 197 269 254 252 219 256 246 264 266 279 280 263 277 256 277 288 288 288 289
348 342 336 323 290 259 242 337 347 336 29 274 226 228 181 197 249 234 214 199 186 205 196 227 250 242 268 232 197 260 212 236 246 220 257 167 276 238 254 263 238 268 287 290 287
336 336 327 315 262 255 251 291 322 349 341 159 169 193 178 176 290 215 209 206 197 199 138 233 206 200 229 250 185 237 240 232 249 236 137 256 287 261 196 264 270 250 279 289 290
330 330 323 312 265 240 261 307 249 46 258 14 141 161 128 219 272 82 175 208 232 214 239 243 239 177 232 259 241 300 313 327 36 113 252 248 234 246 233 234 259 260 280 291 279
327 326 319 297 253 179 224 307 51 166 303 22 1 261 199 208 262 194 206 182 214 195 233 253 255 251 222 267 289 151 69 315 307 291 273 247 264 259 246 264 251 251 272 276 276
328 329 324 284 204 197 192 69 207 255 350 10 319 309 244 33 354 351 25 353 287 174 107 212 289 224 196 194 213 221 168 189 259 249 280 311 252 250 235 266 275 283 289 286 243
337 350 58 79 151 162 158 130 230 2 354 328 333 13 1 14 269 38 206 229 197 170 198 293 256 305 317 262 128 238 212 213 268 267 296 232 299 313 315 329 358 352 357 330 239
344 44 60 115 125 118 79 243 312 48 353 342 39 37 11 326 336 16 310 48 6 104 102 271 296 257 293 0 276 202 179 349 357 288 262 244 248 230 343 343 338 342 341 344 341
2 59 8 152 150 23 124 252 304 41 19 1 18 351 337 15 326 308 250 318 357 110 99 199 194 268 41 221 227 266 124 96 313 181 261 278 255 204 234 268 326 322 327 324 322
10 74 11 208 3 31 24 330 342 4 11 8 316 298 227 312 281 282 264 34 28 19 342 114 206 231 244 238 257 259 225 175 196 215 237 287 259 273 302 297 338 309 314 309 298
353 324 10 327 66 15 335 329 5 18 351 344 292 35 36 345 299 317 316 341 23 16 50 342 344 309 317 340 26 74 91 86 123 137 205 246 261 323 310 295 277 264 286 301 305
2 358 349 42 68 57 6 293 336 332 313 2 308 8 12 313 263 270 294 315 339 336 326 355 217 225 248 255 262 296 285 240 194 228 265 232 283 283 279 275 294 307 318 325 302
14 29 13 334 353 342 311 268 295 308 348 351 353 65 26 278 300 256 253 290 296 293 278 123 233 235 257 278 265 255 252 253 257 244 228 275 262 308 330 318 321 339 337 327 334
18 7 349 313 330 336 299 283 306 338 350 302 256 329 320 272 250 283 285 276 266 220 201 203 257 264 275 270 261 263 262 258 253 256 253 271 283 238 315 336 330 335 340 332 337
3 331 349 303 323 300 249 358 326 327 296 276 320 315 292 275 272 272 273 266 256 248 229 199 200 259 259 287 315 282 249 282 284 41 274 271 327 347 331 322 320 326 321 304 314